DELTA 1 DEB

Satellite information

Favourite Embed

Satellite Type and Status

DEBRISIN ORBIT

Key statistics

Satellite DELTA 1 DEB at a glance.

Uptime

17638

Days in orbit

Revolutions

≈ 13.7

Per day

Orbit

LEO

Low Earth Orbit

Inclination

29.1

Latest

Satellite identification and parameters

Extended collection of information and parameters for DELTA 1 DEB.

Object identification

Identified? True

Debris? True

Object name: DELTA 1 DEB

International designator: 1977-065DC

Object number (NORAD): 10306

Object ID (CCSDS): 10306

Country: UNITED STATES OF AMERICA (US)

Current information (Y/N): Y

RCS size: SMALL

Orbital parameters

Period: 105.356 minutes

Inclination: 29.1056 deg

SMA: 7389.236 km

Apoapsis: 1496.919 km

Periapsis: 525.283 km

RAAN: 248.9788 deg

Eccentricy: 0.0657467

Argument of periapsis: 359.976 deg

Mean anomaly: 0.0713 deg

Mean motion: 13.66795202 rev/day

Mean motion (dot): 0.00006612 rev/day2

B* drag term: 0.0016431051 1/REarth

Two-line elements (TLE)

Creation date: Oct. 28, 2025, 2:18 a.m.

Reference frame: TEME

Reference center: EARTH

Epoch: Oct. 27, 2025, 1:32 p.m. UTC

TLE line 0: 0 DELTA 1 DEB

TLE line 1: 1 10306U 77065DC 25300.56421999 .00006612 00000-0 16431-2 0 9992

TLE line 2: 2 10306 29.1056 248.9788 0657467 359.9760 0.0713 13.66795202359172

Live tracking on map

Real-time ground track for satellite DELTA 1 DEB.

In-orbit conjunctions

A list of the most updated potential collisions computed for object DELTA 1 DEB.

Target Orbit TCA Probability of collision Miss distance Type
ORBCOMM FM 1 LEO 2025-02-16 01:05:39 0.0001013267 34.0 (m) PAYLOAD

Associated space launch

Japanese meteorological satellite built by Hughes Space and Communications Company

DELTA 1 DEB was lifted into orbit during the mission ‘Delta 2914 | Himawari’, on board a Delta 2914 space rocket.

The launch took place on July 14, 1977, 10:39 a.m. from Space Launch Complex 17B.

For more information about the launch, click the button.

Launch to space Delta 2914 | Himawari
Delta 2914 | Himawari

Agency: N/A

Status: Launch Successful

Launch date: July 14, 1977, 10:39 a.m. UTC

Rocket: Delta 2914

Launch pad: Space Launch Complex 17B

Location: Cape Canaveral SFS, FL, USA

...

Latest news about this satellite

There are no fresh news available about this satellite. Check back as we update our databases every day.


Newsletter sign-up

Weekly statistics, charts and insights to help you stay on top of the space industry.